Location: Unspecified
(0.0000°N, 0.0000°E)
Time: 03:51:40
(UTC+00:00)

Transit 4A - Visible Passes

Search period start: 21 May 2026 00:00
Search period end: 31 May 2026 00:00
Orbit: 861 x 980 km, 66.8° (Epoch: 20 May)

Date Brightness Start Highest point End Pass type
(mag) Time Alt. Az. Time Alt. Az. Time Alt. Az.
21 May 10.0 04:07:11 10° SSE 04:11:30 21° ESE 04:15:54 10° ENE visible
22 May 9.2 04:14:50 10° S 04:20:11 36° ESE 04:25:38 10° NE visible
23 May 8.2 04:24:12 16° S 04:28:50 62° ESE 04:34:49 10° NNE visible
24 May 7.7 04:33:44 24° SSW 04:37:31 78° WNW 04:43:34 10° NNE visible
25 May 10.2 02:59:42 14° ESE 03:00:12 14° ESE 03:03:05 10° E visible
25 May 8.2 04:43:14 26° SW 04:46:11 45° WNW 04:51:58 10° N visible
26 May 9.6 03:09:07 24° ESE 03:09:07 24° ESE 03:13:38 10° ENE visible
26 May 8.8 04:52:39 21° WSW 04:54:53 27° WNW 04:59:55 10° NNW visible
27 May 9.0 03:18:28 39° E 03:18:28 39° E 03:23:12 10° NE visible
27 May 9.4 05:02:00 14° W 05:03:38 16° WNW 05:07:06 10° NW visible
28 May 8.5 03:27:45 50° NE 03:27:45 50° NE 03:32:16 10° NNE visible
29 May 8.7 03:36:57 42° N 03:36:57 42° N 03:40:56 10° NNE visible
30 May 9.2 03:46:05 28° NNW 03:46:05 28° NNW 03:49:14 10° N visible
